User: anonymous   Login
Location: Unspecified
(0.0000°N, 0.0000°E)
Time: 20:44:58
(UTC+01:00)
Language:

NOAA 12 - Orbit

View from above orbital plane
View from above orbital plane
View from above satellite
View from above satellite

Ground track
Ground track

The orbit data is extracted from the following two-line orbital elements,

1 21263U 91032A   17057.56290994  .00000000  00000-0  18219-4 0  9998
2 21263  98.5742  84.0470 0012769 242.6825 117.3055 14.25835469340969
Epoch (UTC): 26 February 2017 13:30:35
Eccentricity: 0.0012769
inclination: 98.5742°
perigee height: 796 km
apogee height: 815 km
right ascension of ascending node: 84.0470°
argument of perigee: 242.6825°
revolutions per day: 14.25835469
mean anomaly at epoch: 117.3055°
orbit number at epoch: 34096

The dashed part of the orbit path shows where the satellite is in the earth's shadow,  

DLR